User: anonymous   Login
Location: Abraham Lincoln Continuation High School
(33.9711°N, 117.3662°W)
Time: 14:40:05
(UTC+00:00)
Language:

Cosmos 2026 Rocket - Orbit

View from above orbital plane
View from above orbital plane
View from above satellite
View from above satellite

Ground track
Ground track

The orbit data is extracted from the following two-line orbital elements,

1 20046U 89042B   21206.87893638  .00000041  00000-0  25474-4 0  9999
2 20046  82.9361 265.4374 0042081 181.1324 178.9746 13.78235102615612
Epoch (UTC): 25 July 2021 21:05:40
Eccentricity: 0.0042081
inclination: 82.9361°
perigee height: 939 km
apogee height: 1001 km
right ascension of ascending node: 265.4374°
argument of perigee: 181.1324°
revolutions per day: 13.78235102
mean anomaly at epoch: 178.9746°
orbit number at epoch: 61561

The dashed part of the orbit path shows where the satellite is in the earth's shadow,  

DLR